Total_Precipitation_Accumulation
1.08 0.92 0.81 0.51 0.38 0.34 0.38 0.38 0.31 0.27 0.32 0.22 0.19 0.12 0.06 0.03 0.03 0.05 0.06 0.10 0.29 0.31 0.32 0.41 0.46 0.46 0.43 0.42 0.45 0.47 0.47 0.47 0.45 0.44 0.46 0.43 0.40 0.44 0.48 0.64 0.68 0.72 0.71
1.77 1.08 0.72 0.58 0.40 0.32 0.43 0.49 0.46 0.29 0.26 0.27 0.14 0.15 0.15 0.13 0.08 0.07 0.07 0.09 0.17 0.24 0.26 0.32 0.38 0.49 0.55 0.52 0.50 0.56 0.52 0.47 0.46 0.42 0.44 0.49 0.43 0.43 0.47 0.56 0.73 0.87 0.80
2.05 1.96 1.22 0.63 0.37 0.31 0.38 0.59 0.53 0.60 0.47 0.34 0.28 0.26 0.27 0.21 0.22 0.19 0.16 0.11 0.11 0.14 0.18 0.23 0.49 0.58 0.55 0.70 1.02 1.06 0.70 0.55 0.48 0.49 0.54 0.65 0.64 0.60 0.56 0.55 0.70 0.88 0.74
1.73 2.21 2.33 1.36 0.87 0.64 0.59 0.58 0.81 0.59 0.58 0.59 0.44 0.35 0.23 0.30 0.30 0.28 0.30 0.23 0.13 0.12 0.13 0.16 0.32 0.65 0.80 0.87 1.18 1.65 1.41 0.94 0.76 0.69 0.60 0.58 0.69 0.72 0.63 0.52 0.64 0.96 0.78
1.46 1.37 1.83 2.25 1.71 1.28 0.85 0.67 0.79 0.97 0.78 0.65 0.65 0.57 0.42 0.26 0.26 0.33 0.32 0.29 0.23 0.19 0.13 0.19 0.25 0.35 0.54 0.64 0.70 1.11 1.64 1.32 1.05 1.00 0.87 0.76 0.76 0.72 0.73 0.66 0.74 0.93 1.00
1.43 1.38 1.18 1.40 2.04 1.75 1.55 1.02 0.76 0.82 1.03 0.89 0.66 0.54 0.49 0.42 0.32 0.28 0.36 0.39 0.38 0.39 0.33 0.32 0.32 0.33 0.42 0.42 0.48 0.71 1.05 1.47 1.46 1.53 1.55 1.43 1.15 1.02 1.02 0.93 0.98 1.04 1.09
1.25 1.39 1.23 1.09 1.42 1.61 1.40 1.46 1.29 1.15 1.11 1.07 0.97 0.71 0.57 0.65 0.79 0.80 0.70 0.62 0.60 0.58 0.68 0.55 0.42 0.33 0.31 0.47 0.53 0.49 0.68 0.90 1.16 1.39 1.81 2.53 3.04 3.07 2.58 2.21 2.12 2.30 2.46
1.82 1.24 1.29 1.32 1.12 1.21 1.35 1.32 1.24 1.29 1.37 1.46 1.31 1.01 0.73 0.51 0.41 0.48 0.50 0.36 0.27 0.38 0.44 0.55 0.65 0.56 0.36 0.26 0.30 0.42 0.54 0.63 0.92 1.15 1.41 1.79 2.17 2.55 3.07 2.84 2.59 2.62 2.75
2.54 1.91 1.48 1.65 1.60 1.35 1.36 1.39 1.56 1.37 1.23 1.23 1.28 1.42 1.12 0.71 0.45 0.25 0.19 0.19 0.23 0.22 0.24 0.27 0.31 0.36 0.31 0.28 0.34 0.37 0.50 0.64 0.79 1.01 1.03 1.34 1.55 1.80 2.47 2.77 2.53 2.12 1.97
3.19 2.55 2.35 2.03 2.17 2.08 1.82 1.78 1.75 1.94 2.08 1.95 1.66 1.24 1.12 0.94 0.87 0.56 0.32 0.32 0.27 0.26 0.28 0.26 0.25 0.34 0.44 0.43 0.54 0.63 0.76 0.87 0.89 0.90 1.35 1.62 1.74 1.89 2.24 2.84 3.24 3.29 2.90
2.90 2.93 2.43 2.32 2.36 2.73 2.48 2.51 2.50 2.38 2.18 2.01 1.81 1.62 1.42 1.21 1.08 1.24 0.97 0.57 0.47 0.33 0.29 0.28 0.30 0.36 0.42 0.49 0.58 0.65 0.71 0.79 0.81 0.87 1.30 1.79 2.27 2.54 2.94 3.33 3.74 4.81 4.88
3.41 3.15 3.20 2.67 2.38 2.24 2.09 2.09 2.33 2.02 1.69 1.52 1.40 1.49 1.58 1.56 1.30 1.32 1.19 0.70 0.54 0.37 0.31 0.28 0.27 0.31 0.30 0.37 0.56 0.84 0.90 0.98 1.17 1.22 1.65 2.23 2.50 2.74 3.01 3.40 3.83 4.64 4.23
3.22 2.58 2.39 2.55 2.28 1.70 1.49 1.39 1.51 1.51 1.25 1.11 1.14 1.11 1.17 1.18 1.17 1.24 1.25 0.93 0.68 0.46 0.35 0.27 0.29 0.32 0.30 0.36 0.50 0.77 0.97 1.19 1.44 1.75 2.96 3.40 3.09 2.22 3.28 2.74 3.60 5.07 3.70
2.72 2.60 1.91 2.02 2.23 1.91 1.39 1.17 1.09 1.29 1.20 1.17 1.13 1.03 0.96 0.83 0.93 1.01 1.07 1.15 1.07 0.73 0.55 0.36 0.28 0.41 0.53 0.67 0.85 0.92 0.80 0.94 1.12 1.74 2.24 2.46 2.06 1.72 2.28 2.85 2.07 1.97 1.96
3.05 2.43 2.20 1.71 1.98 2.16 1.63 1.27 1.18 1.09 1.26 0.99 1.02 1.09 1.09 0.94 0.93 0.99 1.11 1.35 1.78 1.57 0.98 0.70 0.79 0.83 0.89 0.90 0.88 0.84 0.75 0.78 0.65 0.48 0.44 0.50 0.45 0.43 0.53 0.73 0.56 0.68 0.84
2.92 2.50 2.34 1.76 1.77 2.32 2.41 1.48 1.16 0.93 1.02 1.16 0.91 1.03 0.98 0.91 0.95 1.00 1.14 1.29 1.57 2.01 1.74 0.77 0.78 0.86 0.92 0.91 0.88 0.71 0.50 0.51 0.38 0.34 0.30 0.31 0.31 0.30 0.27 0.28 0.31 0.41 0.58
3.08 2.65 2.15 2.13 1.61 1.72 2.24 2.32 1.28 1.08 0.99 0.90 0.96 0.81 0.85 0.77 0.87 0.87 0.90 0.94 1.14 1.46 1.64 0.90 0.67 0.56 0.48 0.32 0.25 0.28 0.24 0.19 0.17 0.26 0.27 0.29 0.30 0.30 0.27 0.26 0.31 0.36 0.45
2.85 2.83 2.50 2.39 2.22 1.80 1.80 2.11 2.13 1.43 1.15 0.99 0.91 0.85 0.75 0.77 0.79 0.85 0.89 0.85 0.83 0.90 1.08 0.78 0.40 0.28 0.24 0.19 0.18 0.22 0.20 0.20 0.18 0.26 0.31 0.30 0.35 0.40 0.40 0.38 0.38 0.42 0.47
3.22 2.84 2.83 2.51 2.24 2.19 2.07 1.98 1.90 2.00 1.49 1.18 1.04 1.07 0.87 1.06 1.02 1.08 1.14 1.10 0.98 0.89 0.89 0.93 0.62 0.40 0.31 0.31 0.37 0.40 0.38 0.38 0.36 0.50 0.56 0.58 0.65 0.69 0.70 0.69 0.73 0.79 0.80
4.94 3.95 3.21 2.92 2.70 2.53 2.38 2.35 2.41 2.03 1.86 1.56 1.36 1.18 1.29 1.17 1.14 1.00 1.14 1.07 1.05 1.06 1.07 1.08 0.99 0.83 0.64 0.51 0.67 0.64 0.55 0.48 0.48 0.57 0.74 0.72 0.77 0.81 0.85 0.83 0.82 0.73 0.69
6.42 5.66 4.89 4.01 3.41 3.61 3.63 3.33 3.18 2.93 2.62 2.50 2.14 1.79 1.50 1.55 1.40 1.16 1.18 1.16 1.25 1.43 1.53 1.72 1.61 1.45 1.34 1.13 0.96 0.86 1.02 0.91 0.88 0.74 0.67 0.71 0.80 0.90 1.01 1.11 1.06 1.01 0.98
6.65 7.36 6.58 5.63 4.90 3.89 4.25 4.19 3.84 3.71 3.47 3.33 3.02 2.43 2.00 2.09 1.75 1.67 1.53 1.48 1.41 1.62 1.78 1.83 1.68 1.48 1.11 0.99 0.95 1.18 1.43 1.60 1.52 0.80 0.73 0.94 1.02 1.12 1.09 1.10 1.28 1.17 1.12
6.93 7.61 7.95 7.62 6.90 6.14 5.18 4.33 4.77 4.34 3.94 3.57 3.20 2.97 2.71 2.26 2.24 1.96 1.97 1.86 1.84 2.03 2.01 1.74 1.62 1.41 1.32 1.16 1.46 1.75 1.80 1.86 1.71 1.18 1.11 1.32 1.20 1.30 1.28 1.27 1.37 1.15 1.08
5.23 6.65 7.46 8.18 8.54 7.86 6.71 5.21 5.04 4.84 4.36 3.84 3.44 3.37 3.28 2.86 2.64 2.66 2.54 2.58 2.13 1.84 1.64 1.58 1.53 1.41 1.43 1.44 1.66 1.93 1.83 1.90 1.68 1.29 1.13 1.24 0.90 1.03 1.10 1.20 1.51 1.22 1.05
3.84 4.53 5.01 5.87 6.72 6.98 6.68 5.97 5.52 4.70 4.18 3.72 3.18 2.99 3.40 3.06 3.08 2.99 2.84 2.90 2.19 1.68 1.74 1.79 1.61 1.52 1.53 1.40 1.28 1.60 1.82 1.78 1.65 1.16 1.00 1.09 0.89 0.92 0.94 0.88 0.93 1.12 0.96
3.35 3.38 3.47 3.76 4.18 4.63 5.40 6.39 6.90 6.90 5.38 4.37 3.47 2.62 3.21 2.80 2.78 3.28 2.66 2.20 2.24 1.67 1.38 1.45 1.38 1.28 1.17 1.21 1.47 1.39 1.77 2.61 2.05 1.67 1.01 1.57 1.21 1.11 1.45 0.75 0.73 0.84 0.77